When you browse on this site, cookies collect data to enhance your experience and personalize the content and advertising you see.
Visit our Privacy Policy to learn more. By continuing to use the site, you agree to this use of cookies and data.
  • In Schweiz
  • Länderverzeichnis
  • Für 7 Tage
  • Wassertemperatur
  • Satellitenkarten
  • Wetterkarte
  • Widgets
  • user-avatar
    Anmelden

    Stündliche Wetter Bregenz

    Heute, 22 März, Freitag

    Zeit Temperatur Niederschläge Wind Luftdruck Luftfeuchtigkeit
    00:00 -3°C° 0 mm 2 m/S 653 mmHg 78%
    01:00 -2°C° 0 mm 2 m/S 653 mmHg 69%
    02:00 -2°C° 0 mm 2 m/S 652 mmHg 69%
    03:00 -3°C° 0 mm 2 m/S 652 mmHg 69%
    04:00 -3°C° 0 mm 2 m/S 652 mmHg 69%
    05:00 -3°C° 0 mm 2 m/S 652 mmHg 68%
    06:00 -3°C° 0 mm 2 m/S 652 mmHg 67%
    07:00 -3°C° 0 mm 2 m/S 652 mmHg 64%
    08:00 +2°C° 0 mm 1 m/S 653 mmHg 60%
    09:00 +5°C° 0 mm 1 m/S 653 mmHg 57%
    10:00 +7°C° 0 mm 0 m/S 654 mmHg 53%
    11:00 +8°C° 0 mm 0 m/S 654 mmHg 52%
    12:00 +10°C° 0 mm 1 m/S 654 mmHg 51%
    13:00 +11°C° 0 mm 1 m/S 654 mmHg 49%
    14:00 +11°C° 0 mm 1 m/S 654 mmHg 52%
    15:00 +11°C° 0 mm 1 m/S 654 mmHg 54%
    16:00 +10°C° 0 mm 1 m/S 653 mmHg 57%
    17:00 +8°C° 0 mm 1 m/S 653 mmHg 64%
    18:00 +6°C° 0 mm 1 m/S 652 mmHg 71%
    19:00 +4°C° 0 mm 1 m/S 651 mmHg 78%
    20:00 +3°C° 0 mm 1 m/S 652 mmHg 78%
    21:00 +3°C° 0 mm 1 m/S 652 mmHg 78%
    22:00 +1°C° 0 mm 2 m/S 652 mmHg 78%
    23:00 +1°C° 0 mm 2 m/S 652 mmHg 77%

    Morgen, 23 März, Samstag

    Zeit Temperatur Niederschläge Wind Luftdruck Luftfeuchtigkeit
    00:00 +1°C° 0 mm 2 m/S 652 mmHg 75%
    01:00 -1°C° 0 mm 2 m/S 652 mmHg 74%
    02:00 -1°C° 0 mm 2 m/S 651 mmHg 72%
    03:00 -1°C° 0 mm 2 m/S 651 mmHg 71%
    04:00 -1°C° 0 mm 2 m/S 651 mmHg 70%
    05:00 -1°C° 0 mm 2 m/S 651 mmHg 70%
    06:00 -1°C° 0 mm 2 m/S 651 mmHg 69%
    07:00 -1°C° 0 mm 2 m/S 651 mmHg 69%
    08:00 +3°C° 0 mm 1 m/S 652 mmHg 65%
    09:00 +6°C° 0 mm 1 m/S 652 mmHg 60%
    10:00 +8°C° 0 mm 0 m/S 653 mmHg 56%
    11:00 +9°C° 0 mm 0 m/S 653 mmHg 55%
    12:00 +11°C° 0 mm 1 m/S 653 mmHg 54%
    13:00 +12°C° 0 mm 1 m/S 653 mmHg 52%
    14:00 +11°C° 0 mm 1 m/S 653 mmHg 54%
    15:00 +11°C° 0 mm 1 m/S 652 mmHg 55%
    16:00 +11°C° 0 mm 1 m/S 652 mmHg 57%
    17:00 +9°C° 0 mm 1 m/S 652 mmHg 65%
    18:00 +6°C° 0 mm 1 m/S 651 mmHg 72%
    19:00 +3°C° 0 mm 0 m/S 651 mmHg 80%
    20:00 +4°C° 0 mm 1 m/S 651 mmHg 81%
    21:00 +3°C° 0 mm 1 m/S 651 mmHg 82%
    22:00 +3°C° 0 mm 1 m/S 651 mmHg 83%
    23:00 +2°C° 0 mm 1 m/S 651 mmHg 82%

    übermorgen, 24 März, Sonntag

    Zeit Temperatur Niederschläge Wind Luftdruck Luftfeuchtigkeit
    00:00 +2°C° 0 mm 1 m/S 651 mmHg 81%
    01:00 +2°C° 0 mm 1 m/S 650 mmHg 81%
    02:00 +2°C° 0 mm 1 m/S 650 mmHg 79%
    03:00 +1°C° 0 mm 1 m/S 650 mmHg 78%
    04:00 +1°C° 0 mm 1 m/S 650 mmHg 77%
    05:00 +1°C° 0 mm 1 m/S 650 mmHg 75%
    06:00 +1°C° 0 mm 1 m/S 650 mmHg 74%
    07:00 +1°C° 0 mm 1 m/S 650 mmHg 73%
    08:00 +4°C° 0 mm 1 m/S 650 mmHg 68%
    09:00 +6°C° 0 mm 1 m/S 651 mmHg 63%
    10:00 +8°C° 0 mm 0 m/S 652 mmHg 58%
    11:00 +10°C° 0 mm 1 m/S 652 mmHg 58%
    12:00 +11°C° 0 mm 1 m/S 652 mmHg 57%
    13:00 +11°C° 0 mm 1 m/S 652 mmHg 57%
    14:00 +11°C° 0 mm 1 m/S 651 mmHg 59%
    15:00 +11°C° 0 mm 1 m/S 651 mmHg 60%
    16:00 +11°C° 0 mm 1 m/S 651 mmHg 62%
    17:00 +9°C° 0 mm 1 m/S 651 mmHg 69%
    18:00 +7°C° 0 mm 1 m/S 650 mmHg 77%
    19:00 +5°C° 0 mm 1 m/S 650 mmHg 85%
    20:00 +5°C° 0 mm 1 m/S 650 mmHg 87%
    21:00 +5°C° 0 mm 1 m/S 651 mmHg 90%
    22:00 +4°C° 0 mm 1 m/S 651 mmHg 92%
    23:00 +4°C° 0 mm 1 m/S 651 mmHg 92%

    25 März, Montag

    Zeit Temperatur Niederschläge Wind Luftdruck Luftfeuchtigkeit
    00:00 +4°C° 0 mm 1 m/S 651 mmHg 93%
    01:00 +3°C° 0 mm 1 m/S 650 mmHg 94%
    02:00 +3°C° 0 mm 1 m/S 650 mmHg 94%
    03:00 +3°C° 0 mm 1 m/S 650 mmHg 95%
    04:00 +2°C° 0 mm 1 m/S 650 mmHg 95%
    05:00 +3°C° 0.1 mm 1 m/S 650 mmHg 95%
    06:00 +3°C° 0.1 mm 1 m/S 650 mmHg 95%
    07:00 +3°C° 0.1 mm 1 m/S 650 mmHg 95%
    08:00 +3°C° 0.2 mm 1 m/S 650 mmHg 94%
    09:00 +3°C° 0.2 mm 1 m/S 650 mmHg 93%
    10:00 +2°C° 0.2 mm 2 m/S 650 mmHg 92%
    11:00 +3°C° 0.1 mm 2 m/S 650 mmHg 89%
    12:00 +3°C° 0.1 mm 2 m/S 650 mmHg 86%
    13:00 +4°C° 0.1 mm 2 m/S 650 mmHg 82%
    14:00 +4°C° 0.1 mm 2 m/S 650 mmHg 81%
    15:00 +4°C° 0.1 mm 2 m/S 649 mmHg 80%
    16:00 +4°C° 0.1 mm 2 m/S 649 mmHg 79%
    17:00 +3°C° 0.1 mm 2 m/S 649 mmHg 80%
    18:00 +2°C° 0.1 mm 2 m/S 650 mmHg 81%
    19:00 +1°C° 0.1 mm 2 m/S 650 mmHg 83%
    20:00 -1°C° 0.1 mm 2 m/S 650 mmHg 84%
    21:00 -2°C° 0.1 mm 2 m/S 650 mmHg 86%
    22:00 -2°C° 0.1 mm 2 m/S 651 mmHg 88%
    23:00 -3°C° 0 mm 2 m/S 651 mmHg 90%

    26 März, Dienstag

    Zeit Temperatur Niederschläge Wind Luftdruck Luftfeuchtigkeit
    00:00 -3°C° 0 mm 2 m/S 651 mmHg 92%
    01:00 -4°C° 0 mm 2 m/S 651 mmHg 93%
    02:00 -4°C° 0 mm 2 m/S 652 mmHg 94%
    03:00 -3°C° 0 mm 1 m/S 652 mmHg 95%
    04:00 -3°C° 0 mm 1 m/S 652 mmHg 96%
    05:00 -3°C° 0 mm 1 m/S 652 mmHg 94%
    06:00 -3°C° 0 mm 1 m/S 652 mmHg 92%
    07:00 -3°C° 0 mm 1 m/S 653 mmHg 90%
    08:00 -1°C° 0 mm 1 m/S 653 mmHg 80%
    09:00 -1°C° 0 mm 2 m/S 654 mmHg 69%
    10:00 +1°C° 0 mm 2 m/S 654 mmHg 59%
    11:00 +2°C° 0 mm 2 m/S 654 mmHg 54%
    12:00 +2°C° 0 mm 3 m/S 654 mmHg 49%
    13:00 +3°C° 0 mm 3 m/S 654 mmHg 44%
    14:00 +3°C° 0 mm 3 m/S 654 mmHg 45%
    15:00 +3°C° 0 mm 3 m/S 654 mmHg 47%
    16:00 +3°C° 0 mm 3 m/S 653 mmHg 48%
    17:00 +1°C° 0 mm 3 m/S 653 mmHg 57%
    18:00 -1°C° 0 mm 2 m/S 653 mmHg 65%
    19:00 -3°C° 0 mm 2 m/S 653 mmHg 74%
    20:00 -3°C° 0 mm 2 m/S 653 mmHg 76%
    21:00 -2°C° 0 mm 1 m/S 653 mmHg 78%
    22:00 -3°C° 0 mm 1 m/S 654 mmHg 80%
    23:00 -3°C° 0 mm 1 m/S 653 mmHg 78%

    27 März, Mittwoch

    Zeit Temperatur Niederschläge Wind Luftdruck Luftfeuchtigkeit
    00:00 -3°C° 0 mm 1 m/S 653 mmHg 77%
    01:00 -3°C° 0 mm 1 m/S 653 mmHg 75%
    02:00 -3°C° 0 mm 1 m/S 653 mmHg 72%
    03:00 -3°C° 0 mm 1 m/S 653 mmHg 69%
    04:00 -3°C° 0 mm 1 m/S 652 mmHg 66%
    05:00 -3°C° 0 mm 1 m/S 653 mmHg 64%
    06:00 -2°C° 0 mm 1 m/S 653 mmHg 62%
    07:00 -2°C° 0 mm 1 m/S 653 mmHg 59%
    08:00 +1°C° 0 mm 1 m/S 654 mmHg 53%
    09:00 +3°C° 0 mm 1 m/S 655 mmHg 46%
    10:00 +6°C° 0 mm 1 m/S 655 mmHg 40%
    11:00 +7°C° 0 mm 1 m/S 655 mmHg 38%
    12:00 +8°C° 0 mm 1 m/S 655 mmHg 36%
    13:00 +8°C° 0 mm 2 m/S 655 mmHg 35%
    14:00 +7°C° 0 mm 2 m/S 655 mmHg 36%
    15:00 +7°C° 0 mm 2 m/S 655 mmHg 37%
    16:00 +7°C° 0 mm 2 m/S 655 mmHg 38%
    17:00 +5°C° 0 mm 2 m/S 654 mmHg 47%
    18:00 +4°C° 0 mm 1 m/S 654 mmHg 55%
    19:00 +1°C° 0 mm 1 m/S 654 mmHg 63%
    20:00 +1°C° 0 mm 1 m/S 654 mmHg 66%
    21:00 0°C° 0 mm 1 m/S 654 mmHg 68%
    22:00 -1°C° 0 mm 1 m/S 654 mmHg 71%
    23:00 -1°C° 0 mm 1 m/S 654 mmHg 71%
    Mehr zeigen